Weather History for Danville, KY

Change the Weather History Date:

Sunday, March 24, 2013

  Actual Average (KLEX) Record (KLEX)
Temperature  
Mean Temperature 38 °F 48 °F  
Max Temperature 42 °F 58 °F 85 °F (1910)
Min Temperature 33 °F 38 °F 14 °F (1896)
Degree Days  
Heating Degree Days 28 17  
Month to date heating degree days 495  
Since 1 July heating degree days 4066  
Cooling Degree Days 0 0  
Month to date cooling degree days 0  
Year to date cooling degree days 0  
Moisture  
Dew Point 34 °F    
Average Humidity 87    
Maximum Humidity 100    
Minimum Humidity 53    
Precipitation  
Precipitation 0.00 in 0.13 in 1.13 in (2013)
Month to date precipitation 3.13  
Year to date precipitation 9.53  
Snow  
Snow 0.00 in 0.00 in 2.50 in (1990)
Month to date snowfall 1.2  
Since 1 July snowfall 12.5  
Snow Depth -    
Sea Level Pressure  
Sea Level Pressure 29.58 in    
Wind  
Wind Speed 7 mph (ENE)    
Max Wind Speed 20 mph    
Max Gust Speed 30 mph    
Visibility 7 miles    
Events Rain , Snow    
T = Trace of Precipitation, MM = Missing Value Source: NWS Daily Summary

Daily Weather History Graph

Daily Weather History Graph

Search for Another Location

Airport:

Trip Planner

Search our weather history database for the weather conditions in past years. The results will help you decide how hot, cold, wet, or windy it might be!

Date:

Astronomy

Mar. 24, 2013 Rise Set
Actual Time 7:36 AM EDT 7:54 PM EDT
Civil Twilight 7:10 AM EDT 8:21 PM EDT
Nautical Twilight 6:39 AM EDT 8:51 PM EDT
Astronomical Twilight 6:08 AM EDT 9:23 PM EDT
Moon 5:24 PM EDT (3/24) 5:43 AM EDT (3/24)
Length of Visible Light 13h 11m
Length of Day
12h 18m
Waxing Gibbous, 91% of the Moon is Illuminated
Mar 24
Waxing Gibbous
Mar 27
Full
Apr 3
Last Quarter
Apr 10
New
Apr 18
First Quarter

Hourly Weather History & Observations

Time (EDT) Temp. Windchill Dew Point Humidity Pressure Visibility Wind Dir Wind Speed Gust Speed Precip Events Conditions
12:15 AM 42.8 °F 38.6 °F 26.6 °F 53% 29.81 in 10.0 mi NE 6.9 mph - N/A   Clear
12:35 AM 42.8 °F 39.3 °F 26.6 °F 53% 29.82 in 10.0 mi East 5.8 mph - N/A   Clear
12:55 AM 42.8 °F 39.3 °F 26.6 °F 53% 29.81 in 10.0 mi East 5.8 mph - N/A   Clear
1:15 AM 42.8 °F 38.6 °F 26.6 °F 53% 29.80 in 10.0 mi East 6.9 mph - N/A   Clear
1:35 AM 42.8 °F 37.5 °F 26.6 °F 53% 29.80 in 10.0 mi East 9.2 mph - N/A   Clear
1:55 AM 42.8 °F 38.6 °F 28.4 °F 57% 29.80 in 10.0 mi East 6.9 mph - N/A   Clear
2:15 AM 41.0 °F 37.1 °F 28.4 °F 61% 29.80 in 10.0 mi East 5.8 mph - N/A   Scattered Clouds
2:35 AM 41.0 °F 37.1 °F 28.4 °F 61% 29.81 in 10.0 mi East 5.8 mph - N/A   Overcast
2:55 AM 42.8 °F 38.6 °F 28.4 °F 57% 29.78 in 10.0 mi ENE 6.9 mph - N/A Rain Light Rain
3:15 AM 41.0 °F 35.2 °F 28.4 °F 61% 29.77 in 10.0 mi ENE 9.2 mph - N/A Rain Rain
3:35 AM 41.0 °F 36.4 °F 28.4 °F 61% 29.75 in 10.0 mi ENE 6.9 mph - N/A   Overcast
3:55 AM 41.0 °F 35.8 °F 28.4 °F 61% 29.74 in 10.0 mi East 8.1 mph - N/A   Overcast
4:15 AM 41.0 °F 35.8 °F 28.4 °F 61% 29.73 in 10.0 mi East 8.1 mph - N/A Rain Rain
4:35 AM 41.0 °F 36.4 °F 30.2 °F 65% 29.72 in 10.0 mi ENE 6.9 mph - N/A   Drizzle
4:55 AM 39.2 °F 35.0 °F 32.0 °F 75% 29.73 in 10.0 mi NE 5.8 mph - N/A Rain Light Rain
5:15 AM 37.4 °F 32.8 °F 32.0 °F 81% 29.71 in 10.0 mi ENE 5.8 mph - N/A Rain Light Rain
5:35 AM 37.4 °F 32.8 °F 32.0 °F 81% 29.70 in 10.0 mi ENE 5.8 mph - N/A Rain Light Rain
5:55 AM 37.4 °F 32.1 °F 32.0 °F 81% 29.69 in 10.0 mi ENE 6.9 mph - N/A Rain Light Rain
6:15 AM 35.6 °F 28.6 °F 32.0 °F 87% 29.67 in 7.0 mi East 9.2 mph - N/A Rain Rain
6:35 AM 35.6 °F 29.2 °F 32.0 °F 87% 29.66 in 10.0 mi ENE 8.1 mph - N/A Rain Light Rain
6:55 AM 35.6 °F 29.9 °F 32.0 °F 87% 29.67 in 10.0 mi ENE 6.9 mph - N/A Rain Light Rain
7:15 AM 35.6 °F 30.7 °F 32.0 °F 87% 29.67 in 4.0 mi ENE 5.8 mph - N/A Rain Rain
7:35 AM 35.6 °F 30.7 °F 33.8 °F 93% 29.65 in 3.0 mi ENE 5.8 mph - N/A Rain Rain
7:55 AM 35.6 °F 29.9 °F 33.8 °F 93% 29.65 in 5.0 mi ENE 6.9 mph - N/A Rain Light Rain
8:15 AM 35.6 °F 29.2 °F 33.8 °F 93% 29.64 in 2.5 mi East 8.1 mph - N/A Rain Rain
8:35 AM 33.8 °F 28.6 °F 33.8 °F 100% 29.65 in 2.5 mi East 5.8 mph - N/A Rain Rain
8:55 AM 33.8 °F 27.0 °F 33.8 °F 100% 29.64 in 2.0 mi East 8.1 mph - N/A Rain Rain
9:15 AM 33.8 °F 27.0 °F 33.8 °F 100% 29.63 in 4.0 mi ENE 8.1 mph - N/A Rain Rain
9:35 AM 33.8 °F 28.6 °F 33.8 °F 100% 29.62 in 3.0 mi ENE 5.8 mph - N/A Rain Rain
9:55 AM 33.8 °F 27.0 °F 33.8 °F 100% 29.61 in 1.8 mi ENE 8.1 mph - N/A Rain Rain
10:15 AM 33.8 °F 27.0 °F 33.8 °F 100% 29.61 in 3.0 mi NE 8.1 mph - N/A Rain Light Rain
10:35 AM 33.8 °F 28.6 °F 33.8 °F 100% 29.61 in 5.0 mi NE 5.8 mph - N/A Rain Light Rain
10:55 AM 35.6 °F 30.7 °F 33.8 °F 93% 29.61 in 4.0 mi NE 5.8 mph - N/A Rain Rain
11:15 AM 35.6 °F 29.2 °F 33.8 °F 93% 29.60 in 2.5 mi NE 8.1 mph - N/A   Drizzle
11:35 AM 35.6 °F 30.7 °F 33.8 °F 93% 29.60 in 2.5 mi ENE 5.8 mph - N/A Rain Rain
11:55 AM 35.6 °F 29.9 °F 33.8 °F 93% 29.59 in 4.0 mi East 6.9 mph - N/A   Light Drizzle
12:15 PM 35.6 °F 30.7 °F 33.8 °F 93% 29.58 in 3.0 mi East 5.8 mph - N/A Rain Light Rain
12:35 PM 35.6 °F 30.7 °F 35.6 °F 100% 29.57 in 2.5 mi East 5.8 mph - N/A   Light Drizzle
12:55 PM 35.6 °F 30.7 °F 35.6 °F 100% 29.56 in 4.0 mi East 5.8 mph - N/A   Drizzle
1:15 PM 35.6 °F 30.7 °F 35.6 °F 100% 29.55 in 5.0 mi East 5.8 mph - N/A   Overcast
1:35 PM 37.4 °F 30.8 °F 35.6 °F 93% 29.52 in 3.0 mi East 9.2 mph - N/A Rain Rain
1:55 PM 37.4 °F 28.5 °F 37.4 °F 100% 29.47 in 4.0 mi East 15.0 mph - N/A   Overcast
2:15 PM 37.4 °F 33.8 °F 37.4 °F 100% 29.48 in 5.0 mi SE 4.6 mph 9.2 mph N/A   Overcast
2:35 PM 37.4 °F 30.8 °F 37.4 °F 100% 29.45 in 7.0 mi ESE 9.2 mph - N/A   Overcast
2:55 PM 37.4 °F 34.9 °F 37.4 °F 100% 29.45 in 7.0 mi ESE 3.5 mph - N/A   Overcast
3:15 PM 39.2 °F 35.9 °F 37.4 °F 93% 29.44 in 7.0 mi ESE 4.6 mph - N/A   Overcast
3:35 PM 39.2 °F 35.0 °F 37.4 °F 93% 29.43 in 5.0 mi ENE 5.8 mph - N/A   Overcast
3:55 PM 39.2 °F 34.2 °F 37.4 °F 93% 29.42 in 3.0 mi NE 6.9 mph - N/A   Light Drizzle
4:15 PM 37.4 °F 31.4 °F 37.4 °F 100% 29.40 in 2.5 mi NE 8.1 mph - N/A   Light Drizzle
4:35 PM 37.4 °F 30.3 °F 37.4 °F 100% 29.38 in 1.8 mi NNE 10.4 mph - N/A Rain Rain
4:55 PM 37.4 °F 30.3 °F 37.4 °F 100% 29.38 in 1.0 mi North 10.4 mph - N/A Rain Heavy Rain
5:15 PM 37.4 °F 28.5 °F 37.4 °F 100% 29.35 in 1.0 mi North 15.0 mph 19.6 mph N/A Rain Rain
5:35 PM 37.4 °F 33.8 °F 37.4 °F 100% 29.40 in 0.5 mi East 4.6 mph - N/A Snow Light Snow
5:55 PM 37.4 °F 28.2 °F 37.4 °F 100% 29.43 in 2.0 mi West 16.1 mph 19.6 mph N/A Snow Snow
6:15 PM 37.4 °F - 37.4 °F 100% 29.42 in 4.0 mi Calm Calm - N/A Rain Rain
6:35 PM 37.4 °F 32.8 °F 37.4 °F 100% 29.44 in 5.0 mi WNW 5.8 mph - N/A Rain Rain
6:55 PM 37.4 °F 34.9 °F 37.4 °F 100% 29.43 in 7.0 mi North 3.5 mph - N/A Rain Light Rain
7:15 PM 37.4 °F 34.9 °F 37.4 °F 100% 29.45 in 10.0 mi WSW 3.5 mph - N/A Rain Light Rain
7:35 PM 37.4 °F - 37.4 °F 100% 29.44 in 10.0 mi Calm Calm - N/A   Overcast
7:55 PM 37.4 °F 32.8 °F 37.4 °F 100% 29.45 in 10.0 mi SSW 5.8 mph - N/A   Overcast
8:15 PM 37.4 °F 34.9 °F 37.4 °F 100% 29.45 in 10.0 mi SSW 3.5 mph - N/A   Overcast
8:35 PM 37.4 °F 33.8 °F 37.4 °F 100% 29.45 in 10.0 mi SW 4.6 mph - N/A   Drizzle
8:55 PM 37.4 °F 33.8 °F 37.4 °F 100% 29.45 in 10.0 mi SSW 4.6 mph - N/A   Drizzle
9:15 PM 39.2 °F 33.6 °F 37.4 °F 93% 29.47 in 10.0 mi WSW 8.1 mph - N/A Rain Rain
9:35 PM 41.0 °F 35.2 °F 37.4 °F 87% 29.47 in 10.0 mi West 9.2 mph 20.7 mph N/A Rain Light Rain
9:55 PM 41.0 °F 33.1 °F 37.4 °F 87% 29.47 in 10.0 mi West 15.0 mph 24.2 mph N/A Rain Rain
10:15 PM 39.2 °F 31.2 °F 35.6 °F 87% 29.47 in 10.0 mi West 13.8 mph 24.2 mph N/A Rain Light Rain
10:35 PM 39.2 °F 30.8 °F 35.6 °F 87% 29.47 in 10.0 mi West 15.0 mph 29.9 mph N/A Rain Light Rain
10:55 PM 37.4 °F 29.3 °F 35.6 °F 93% 29.48 in 10.0 mi West 12.7 mph 27.6 mph N/A   Drizzle
11:15 PM 37.4 °F 28.2 °F 35.6 °F 93% 29.48 in 10.0 mi West 16.1 mph 27.6 mph N/A Rain Rain
11:35 PM 37.4 °F 29.8 °F 33.8 °F 87% 29.50 in 10.0 mi West 11.5 mph 25.3 mph N/A Rain Light Rain
11:55 PM 35.6 °F 24.8 °F 33.8 °F 93% 29.50 in 5.0 mi West 19.6 mph 25.3 mph N/A Rain Rain